Weather History for Corpus Christi, TX

Change the Weather History Date:

Saturday, March 30, 2013

  Actual Average Record
Temperature  
Mean Temperature 77 °F 69 °F  
Max Temperature 87 °F 79 °F 102 °F (1989)
Min Temperature 66 °F 59 °F 36 °F (1987)
Degree Days  
Heating Degree Days 0 1  
Month to date heating degree days 64 80  
Since 1 July heating degree days 516 880  
Cooling Degree Days 12 5  
Month to date cooling degree days 143 110  
Year to date cooling degree days 287 186  
Growing Degree Days 26 (Base 50)    
Moisture  
Dew Point 64 °F    
Average Humidity 68    
Maximum Humidity 87    
Minimum Humidity 48    
Precipitation  
Precipitation T in 0.04 in 0.53 in (1965)
Month to date precipitation 0.06 1.84  
Year to date precipitation 1.75 5.31  
Snow  
Snow 0.00 in - - ()
Month to date snowfall 0.0  
Since 1 July snowfall 0.0  
Snow Depth 0.00 in    
Sea Level Pressure  
Sea Level Pressure 30.02 in    
Wind  
Wind Speed 15 mph (SE)    
Max Wind Speed 28 mph    
Max Gust Speed 33 mph    
Visibility 10 miles    
Events      
T = Trace of Precipitation, MM = Missing Value Source: NWS Daily Summary

Daily Weather History Graph

Daily Weather History Graph

Search for Another Location

Airport:

Trip Planner

Search our weather history database for the weather conditions in past years. The results will help you decide how hot, cold, wet, or windy it might be!

Date:

Astronomy

Mar. 30, 2013 Rise Set
Actual Time 7:22 AM CDT 7:46 PM CDT
Civil Twilight 6:58 AM CDT 8:10 PM CDT
Nautical Twilight 6:31 AM CDT 8:37 PM CDT
Astronomical Twilight 6:03 AM CDT 9:05 PM CDT
Moon 11:33 PM CDT (3/30) 9:38 AM CDT (3/30)
Length of Visible Light 13h 11m
Length of Day
12h 24m
Waning Gibbous, 86% of the Moon is Illuminated
Mar 30
Waning Gibbous
Apr 2
Last Quarter
Apr 10
New
Apr 18
First Quarter
Apr 25
Full

Hourly Weather History & Observations

Time (CDT) Temp. Heat Index Dew Point Humidity Pressure Visibility Wind Dir Wind Speed Gust Speed Precip Events Conditions
12:51 AM 70.0 °F - 62.1 °F 76% 30.10 in 10.0 mi SE 13.8 mph - N/A   Partly Cloudy
1:51 AM 69.1 °F - 62.1 °F 78% 30.09 in 10.0 mi SSE 11.5 mph - N/A   Mostly Cloudy
2:51 AM 68.0 °F - 61.0 °F 78% 30.08 in 10.0 mi SE 8.1 mph - N/A   Partly Cloudy
3:51 AM 69.1 °F - 61.0 °F 75% 30.06 in 10.0 mi SE 9.2 mph - N/A   Partly Cloudy
4:51 AM 66.0 °F - 61.0 °F 84% 30.04 in 10.0 mi SE 8.1 mph - N/A   Partly Cloudy
5:51 AM 66.0 °F - 61.0 °F 84% 30.04 in 10.0 mi SE 8.1 mph - N/A   Mostly Cloudy
6:51 AM 66.9 °F - 62.1 °F 84% 30.06 in 10.0 mi SE 8.1 mph - N/A   Mostly Cloudy
7:51 AM 68.0 °F - 63.0 °F 84% 30.05 in 10.0 mi SE 9.2 mph - N/A   Mostly Cloudy
8:51 AM 72.0 °F - 64.9 °F 78% 30.07 in 10.0 mi SSE 12.7 mph - N/A   Overcast
9:51 AM 73.0 °F - 64.9 °F 76% 30.09 in 10.0 mi SE 10.4 mph - 0.00 in   Overcast
10:51 AM 75.0 °F - 66.0 °F 73% 30.08 in 10.0 mi SE 15.0 mph - N/A   Overcast
11:03 AM 75.2 °F - 64.4 °F 69% 30.08 in 10.0 mi SE 12.7 mph - N/A   Overcast
11:51 AM 78.1 °F - 66.0 °F 66% 30.06 in 10.0 mi SE 15.0 mph - 0.00 in   Mostly Cloudy
12:51 PM 81.0 °F 82.7 °F 64.9 °F 58% 30.04 in 10.0 mi SSE 17.3 mph 24.2 mph N/A   Mostly Cloudy
1:13 PM 80.6 °F 82.3 °F 64.4 °F 58% 30.04 in 10.0 mi SSE 15.0 mph 23.0 mph N/A   Mostly Cloudy
1:51 PM 84.9 °F 86.6 °F 64.9 °F 51% 30.01 in 10.0 mi SE 17.3 mph 23.0 mph N/A   Mostly Cloudy
2:51 PM 84.0 °F 85.8 °F 64.9 °F 53% 29.98 in 10.0 mi SE 20.7 mph 27.6 mph N/A   Scattered Clouds
3:51 PM 86.0 °F 87.3 °F 64.0 °F 48% 29.96 in 10.0 mi SSE 19.6 mph 29.9 mph N/A   Partly Cloudy
4:51 PM 84.9 °F 86.1 °F 64.0 °F 49% 29.94 in 10.0 mi SE 19.6 mph - N/A   Partly Cloudy
5:51 PM 82.0 °F 83.4 °F 64.0 °F 54% 29.93 in 10.0 mi SSE 24.2 mph - N/A   Partly Cloudy
6:51 PM 78.1 °F - 64.9 °F 64% 29.94 in 10.0 mi SSE 24.2 mph - N/A   Clear
7:51 PM 73.9 °F - 64.9 °F 73% 29.94 in 10.0 mi SSE 20.7 mph - N/A   Partly Cloudy
8:51 PM 73.0 °F - 64.9 °F 76% 29.94 in 10.0 mi SSE 18.4 mph - N/A   Clear
9:51 PM 72.0 °F - 64.9 °F 78% 29.96 in 10.0 mi SSE 19.6 mph - N/A   Clear
10:51 PM 71.1 °F - 64.9 °F 81% 29.96 in 10.0 mi SSE 15.0 mph - N/A   Clear
11:51 PM 70.0 °F - 64.9 °F 84% 29.97 in 10.0 mi SSE 15.0 mph - N/A   Clear